Location: Erskine
(52.3216°N, 112.8806°W)
Time: 11:10:09
(UTC+00:00)

NOAA 15 - Pass Details

Date: 16 December 2023
Orbit: 797 x 810 km, 98.6° (Epoch: 02 March)

Event Time Altitude Azimuth Distance (km) Brightness Sun altitude
Rises 01:17:14 0° 139° (SE) 3,314 7.6 -16.8°
Reaches altitude 10° 01:19:40 10° 132° (SE) 2,385 6.7 -17.2°
Maximum altitude 01:24:35 41° 64° (ENE) 1,154 4.9 -17.9°
Drops below altitude 10° 01:29:30 10° 356° (N) 2,391 7.0 -18.6°
Sets 01:31:56 0° 349° (N) 3,324 7.8 -19.0°
